Wind_Speed
35 28 30 45 44 42 40 33 32 32 34 33 33 32 30 28 28 26 25 26 26 27 27 26 26 28 28 29 27 25 25 24
27 21 30 39 43 43 41 40 38 39 40 39 37 37 35 33 32 29 26 25 25 27 27 27 28 29 30 30 29 28 28 24
6 14 22 31 32 38 41 42 40 40 41 40 42 42 39 36 34 31 28 27 27 27 28 30 30 31 31 31 32 31 31 28
11 11 14 16 16 23 31 37 40 43 45 46 47 43 40 37 34 33 33 31 31 29 28 29 31 33 33 33 33 35 34 32
18 18 19 15 10 10 19 24 30 36 39 42 45 47 45 43 40 37 34 35 34 31 30 29 30 33 36 35 35 36 36 35
23 20 18 22 16 12 14 18 21 25 30 34 38 44 42 40 40 36 33 31 33 34 34 32 30 32 33 35 37 37 38 39
23 18 16 20 15 13 14 15 17 21 28 32 34 37 38 37 35 36 33 32 32 33 36 36 33 32 32 33 33 35 36 39
24 22 20 18 14 11 9 8 9 10 16 26 32 36 38 36 37 37 35 34 34 32 35 37 36 35 32 31 32 33 35 36
23 24 22 22 17 12 8 5 1 5 10 13 25 35 39 40 42 42 41 36 33 31 33 35 35 35 33 32 33 33 32 35
29 27 26 25 22 18 14 9 8 9 12 17 22 24 35 40 41 42 40 38 34 32 28 28 33 34 34 35 34 32 31 36
31 37 34 30 25 21 17 14 12 9 11 15 25 31 32 37 41 43 42 39 35 32 28 27 30 32 34 34 32 32 30 34
39 38 37 35 30 26 20 19 17 9 7 6 12 22 26 26 35 38 36 36 34 32 26 26 28 29 32 33 29 28 25 24
37 37 35 38 36 32 27 22 20 17 11 5 3 10 14 22 26 30 29 32 32 31 29 26 27 27 30 27 27 23 24 24
33 33 37 37 35 36 34 30 25 21 17 11 7 5 11 15 14 23 27 29 31 33 32 29 28 26 26 26 23 21 22 23
30 34 34 33 34 34 35 34 30 24 20 16 12 8 5 10 18 19 21 28 32 33 34 31 26 24 24 23 21 19 18 18
28 32 32 33 32 33 33 33 35 32 24 19 16 14 9 8 13 17 22 28 29 32 31 25 20 20 22 23 21 18 19 19
21 26 28 31 32 32 30 31 33 34 34 28 23 20 17 11 8 8 20 29 29 34 25 25 20 22 25 24 24 23 21 22
26 26 26 26 29 28 29 29 29 31 34 35 31 26 23 20 15 8 11 12 23 24 29 24 20 20 21 23 22 24 25 27
21 22 22 23 22 26 22 24 26 28 30 30 31 32 30 27 23 17 13 6 4 8 16 19 23 23 21 22 23 23 25 25
Wind_Direction
243 235 234 228 230 231 225 222 228 230 232 228 226 221 220 218 218 217 217 221 219 221 222 222 221 223 224 223 227 233 239 242
253 243 234 223 225 228 232 229 229 227 226 226 228 224 221 221 222 222 222 224 225 224 225 223 223 226 227 227 227 230 237 243
227 235 233 234 237 233 231 234 233 234 229 229 230 228 224 223 221 223 227 228 228 228 227 225 226 227 227 229 229 233 237 241
123 157 185 201 214 220 224 234 237 233 230 225 222 223 224 223 225 229 231 229 229 229 229 229 228 231 231 234 234 235 240 244
106 103 112 124 125 174 198 213 227 229 225 227 225 224 221 227 227 227 230 230 230 229 231 230 231 233 235 237 239 241 242 245
92 81 80 97 104 133 159 182 199 208 212 222 230 226 229 234 231 232 235 236 235 234 231 230 231 234 237 241 242 243 245 245
81 72 72 85 88 98 117 158 181 193 202 211 225 229 233 235 236 241 239 240 238 242 232 231 233 234 236 240 241 243 245 247
66 56 51 64 65 64 75 103 151 180 206 209 215 225 230 231 240 243 241 241 240 248 239 233 234 234 241 242 244 245 247 248
53 50 48 51 44 38 27 1 42 214 225 219 221 224 226 229 235 241 243 245 248 252 249 244 236 238 242 241 247 252 255 251
45 49 47 48 46 37 22 358 318 283 260 245 236 234 234 234 235 242 245 247 249 249 250 245 237 237 240 241 247 247 252 253
43 45 42 46 45 46 36 32 19 345 307 259 244 239 237 239 235 235 241 246 249 247 242 242 236 235 236 243 247 248 249 257
40 44 40 42 40 37 31 38 33 17 352 312 253 236 237 241 243 241 242 246 250 245 238 239 237 236 243 246 242 248 245 248
41 43 38 42 40 38 35 34 37 32 31 36 220 243 238 244 244 239 241 244 247 243 233 235 238 243 249 232 242 242 240 245
41 44 42 40 37 37 37 33 30 29 27 24 20 198 219 217 223 248 243 248 250 242 234 230 236 248 236 231 238 236 241 244
34 39 41 39 37 36 38 38 34 33 31 23 11 354 281 253 236 235 255 256 252 242 234 227 237 250 224 231 236 229 236 233
29 31 33 34 35 35 37 39 39 36 32 34 27 11 352 261 249 254 246 248 261 235 222 222 231 225 226 228 233 237 233 238
35 32 32 31 33 33 35 38 42 43 40 37 40 31 19 350 276 264 232 223 218 209 208 213 211 224 227 230 232 232 234 236
35 33 28 27 28 28 33 36 40 42 46 43 39 45 42 30 7 321 254 206 209 192 196 201 212 220 228 230 235 238 236 234
36 33 31 29 29 31 33 40 42 44 44 45 45 44 50 52 48 36 37 35 90 182 187 190 205 213 216 227 233 238 237 235
Height
1409 1412 1416 1422 1427 1429 1431 1433 1436 1439 1444 1448 1452 1456 1459 1462 1465 1467 1471 1473 1476 1479 1482 1486 1489 1491 1494 1497 1499 1501 1503 1506
1404 1407 1409 1413 1418 1421 1423 1425 1429 1432 1436 1441 1445 1449 1452 1456 1459 1462 1466 1469 1472 1474 1478 1482 1485 1487 1490 1493 1496 1497 1499 1502
1397 1396 1399 1403 1405 1411 1416 1419 1422 1426 1429 1433 1437 1442 1447 1451 1454 1459 1463 1465 1467 1469 1473 1477 1481 1483 1486 1489 1491 1493 1495 1498
1394 1394 1393 1394 1398 1402 1408 1413 1417 1421 1424 1427 1431 1436 1442 1448 1451 1454 1456 1460 1463 1465 1468 1471 1475 1479 1481 1484 1487 1488 1489 1492
1390 1392 1392 1388 1391 1397 1401 1407 1410 1414 1418 1422 1425 1428 1433 1438 1443 1447 1452 1456 1459 1462 1464 1467 1470 1474 1476 1479 1482 1483 1485 1486
1388 1391 1392 1385 1391 1397 1400 1401 1404 1409 1413 1418 1422 1425 1431 1435 1441 1445 1448 1451 1454 1457 1459 1462 1464 1468 1471 1473 1476 1477 1478 1480
1388 1392 1393 1387 1394 1398 1398 1399 1403 1406 1410 1413 1418 1423 1427 1432 1437 1440 1442 1445 1448 1450 1452 1455 1458 1461 1463 1466 1469 1470 1471 1473
1391 1394 1394 1389 1392 1395 1396 1398 1401 1403 1407 1408 1412 1417 1422 1426 1429 1433 1436 1438 1440 1442 1444 1448 1451 1454 1457 1459 1461 1462 1464 1465
1399 1399 1400 1393 1393 1393 1393 1397 1397 1402 1404 1405 1409 1411 1414 1418 1422 1425 1429 1432 1435 1438 1439 1441 1445 1448 1450 1452 1454 1456 1457 1458
1401 1404 1402 1396 1395 1395 1396 1396 1395 1397 1399 1400 1403 1406 1409 1412 1416 1419 1423 1426 1430 1433 1434 1435 1438 1441 1443 1446 1447 1448 1450 1451
1405 1400 1400 1399 1401 1398 1399 1397 1395 1396 1395 1394 1395 1397 1400 1403 1407 1411 1414 1419 1423 1426 1428 1428 1432 1434 1436 1439 1440 1441 1443 1444
1403 1401 1403 1398 1395 1394 1398 1393 1393 1394 1393 1392 1391 1391 1394 1397 1400 1404 1409 1413 1416 1420 1422 1424 1426 1428 1430 1432 1434 1435 1437 1439
1410 1405 1410 1401 1400 1401 1398 1396 1394 1393 1391 1390 1389 1390 1391 1394 1396 1399 1403 1407 1410 1413 1416 1419 1421 1422 1423 1426 1428 1430 1432 1433
1423 1423 1413 1411 1411 1406 1400 1396 1393 1390 1388 1388 1389 1389 1389 1390 1391 1395 1398 1401 1403 1406 1409 1412 1414 1415 1416 1420 1423 1425 1427 1429
1428 1423 1422 1421 1417 1412 1407 1402 1399 1394 1391 1389 1388 1387 1387 1389 1389 1390 1393 1395 1397 1400 1402 1405 1408 1409 1412 1417 1419 1421 1423 1425
1433 1429 1427 1425 1420 1416 1412 1408 1402 1397 1394 1391 1390 1389 1388 1387 1386 1387 1388 1392 1392 1394 1396 1399 1402 1405 1408 1412 1415 1417 1419 1421
1445 1439 1434 1428 1424 1420 1418 1414 1408 1403 1398 1396 1391 1391 1387 1386 1386 1385 1384 1385 1386 1386 1390 1396 1396 1401 1404 1408 1411 1414 1416 1418
1442 1439 1437 1433 1430 1426 1421 1417 1413 1409 1404 1402 1399 1394 1389 1389 1386 1384 1386 1380 1382 1382 1381 1391 1392 1396 1400 1404 1407 1410 1411 1413
1449 1446 1445 1440 1436 1432 1428 1423 1419 1415 1412 1410 1406 1402 1398 1394 1391 1390 1388 1388 1387 1378 1384 1384 1389 1391 1394 1400 1403 1406 1406 1407